User: anonymous   Login
Location: Mentone
(34.5413°N, 85.5351°W)
Time: 02:41:33
(UTC-05:00)
Language:

Uosat F - Orbit

View from above orbital plane
View from above orbital plane
View from above satellite
View from above satellite

Ground track
Ground track

The orbit data is extracted from the following two-line orbital elements,

1 21575U 91050B   18176.13683115  .00000018  00000-0  19996-4 0  9993
2 21575  98.7282 205.9106 0006127 269.8758  90.1728 14.40848522414983
Epoch (UTC): 25 June 2018 03:17:02
Eccentricity: 0.0006127
inclination: 98.7282°
perigee height: 751 km
apogee height: 760 km
right ascension of ascending node: 205.9106°
argument of perigee: 269.8758°
revolutions per day: 14.40848522
mean anomaly at epoch: 90.1728°
orbit number at epoch: 41498

The dashed part of the orbit path shows where the satellite is in the earth's shadow,  

DLR